Regional Weather Roundup
Issued by NWS

Home | Current Version | Previous Version | Graphics & Text | Print | Product List | Glossary On
Versions: 1 2 3 4 5 6 7 8 9 10 11 12 13 14 15 16 17 18 19 20 21 22 23 24 25 26 27 28 29 30 31 32 33 34 35 36 37 38 39 40 41 42 43 44 45 46 47 48 49 50
000
ASUS43 KMPX 102301
RWRMN
WEATHER ROUNDUP FOR MINNESOTA
NATIONAL WEATHER SERVICE TWIN CITIES/CHANHASSEN MN
500 PM CST SUN DEC 10 2017


NOTE: "FAIR" INDICATES FEW OR NO CLOUDS BELOW 12,000 FEET WITH NO
SIGNIFICANT WEATHER AND/OR OBSTRUCTIONS TO VISIBILITY. N/A MEANS
CURRENT SKY AND/OR WEATHER CONDITIONS ARE NOT AVAILABLE.

MNZ060>063-068>070-110000-
   Twin Cities Metro

CITY           SKY/WX    TMP DP  RH WIND       PRES   REMARKS
TWIN CITIES    PTCLDY    27  21  78 CALM      30.05R
ST PAUL        CLEAR     26  19  74 NW5       30.06R WCI  20
CRYSTAL        CLEAR     25  17  72 CALM      30.04R
BLAINE         PTCLDY    28  21  74 CALM      30.04R
LAKEVILLE      CLEAR     25  21  86 CALM      30.05R
EDEN PRAIRIE   CLEAR     29  21  72 CALM      30.04R
SOUTH ST PAUL  CLEAR     27  20  75 CALM      30.05R
LAKE ELMO      FAIR      27  21  80 CALM      30.05R
$$
MNZ001>005-007-008-013>017-022>024-027-028-110000-
   Northwest Minnesota

CITY           SKY/WX    TMP DP  RH WIND       PRES   REMARKS
BEMIDJI        CLEAR     17  13  88 CALM      29.98F
HALLOCK        CLOUDY    23  19  86 S7        29.98F WCI  15
ROSEAU         PTCLDY    16  12  86 S3        29.97F
WARROAD        CLOUDY    16  12  86 S3        29.98F
CROOKSTON      CLOUDY    21  19  93 SW6       30.03S WCI  14
FOSSTON        CLOUDY    16  12  86 S6        30.00F WCI   7
DETROIT LAKES  CLOUDY    23  19  86 CALM      30.02S
MOORHEAD       CLOUDY    27  19  74 CALM      30.04S
PARK RAPIDS    CLOUDY    21  16  81 W3        29.98S
MAHNOMEN       CLOUDY    20  17  88 SW3       30.00S
$$
MNZ006-009>011-018-025>026-110000-
   North Central Minnesota

CITY           SKY/WX    TMP DP  RH WIND       PRES   REMARKS
BAUDETTE       CLOUDY    15  11  83 E3        29.99F
FLAG ISLAND    CLOUDY    12   9  85 SE6       29.98S WCI   3
INTL FALLS     CLOUDY     8   5  87 CALM      30.00F
WASKISH        CLOUDY    19  18  93 CALM      30.00S
BIG FORK       CLOUDY    19  12  73 CALM      29.99S
GRAND RAPIDS   CLOUDY    18  14  84 CALM      30.01F
ORR            CLOUDY    10   7  85 CALM      29.97F
COOK           CLEAR     12   7  79 CALM      30.00F
WALKER         FAIR      20  14  76 CALM      29.99S
$$
MNZ012-019>021-037-110000-
   Northeast Minnesota

CITY           SKY/WX    TMP DP  RH WIND       PRES   REMARKS
DULUTH         PTCLDY    16  10  77 NW3       30.00R
ELY            CLOUDY    10   5  79 CALM      30.00R
HIBBING        CLOUDY    14  11  87 CALM      30.00S
EVELETH        CLOUDY    14   7  73 CALM      30.01R
DULUTH HARBOR  CLEAR     21  14  73 NW9       30.06S WCI  11
TWO HARBORS    CLEAR     18   9  68 CALM      30.01R
G MARAIS ARPRT CLEAR      5   0  78 CALM      29.95R
$$
MNZ029>031-032-039>041-046>048-054>057-064-110000-
   West Central Minnesota

CITY           SKY/WX    TMP DP  RH WIND       PRES   REMARKS
FERGUS FALLS   CLOUDY    27  21  80 NW5       30.05S WCI  21
MORRIS         CLOUDY    30  21  69 NW3       30.03R
ALEXANDRIA     CLOUDY    27  19  72 W3        30.01S
ELBOW LAKE     CLOUDY    28  22  79 NW3       30.03S HAZE
WADENA         CLOUDY    21  18  86 CALM      30.00S
GLENWOOD       CLOUDY    28  21  74 NW3       30.02S
BENSON         CLOUDY    32  25  74 NW3       30.05S
ORTONVILLE     CLOUDY    34  23  64 CALM      30.04R
MADISON        CLOUDY    37  27  65 CALM      30.04S
WILLMAR        FAIR      32  23  69 W7        30.05R WCI  26
$$
MNZ033>034-036-042>043-049>051-058-059-110000-
   Central Minnesota

CITY           SKY/WX    TMP DP  RH WIND       PRES   REMARKS
ST CLOUD       CLEAR     25  19  78 CALM      30.03S
SAUK CENTRE    FAIR      26  21  82 CALM      30.03R
PAYNESVILLE    PTCLDY    27  22  82 CALM      30.04R
AITKIN         CLEAR     19  14  79 CALM      30.00S
PINE RIVER     CLEAR     21  16  79 CALM      30.03S
BRAINERD       CLEAR     24  16  71 CALM      30.01S
STAPLES        CLEAR     21  16  79 W3        30.01S
LONG PRAIRIE   FAIR      27  19  74 W3        30.02R
LITTLE FALLS   CLEAR     27  14  59 CALM      30.03R
LITCHFIELD     PTCLDY    30  23  74 CALM      30.04R
BUFFALO        CLEAR     27  20  75 CALM      30.05R
MAPLE LAKE     CLEAR     27  22  81 CALM      30.05R
HUTCHINSON     CLOUDY    31  24  77 NW3       30.05R
$$
MNZ037-044-045-052-053-110000-
   East Central Minnesota

CITY           SKY/WX    TMP DP  RH WIND       PRES   REMARKS
PRINCETON      CLEAR     25  18  74 CALM      30.03F
MORA           CLEAR     25  18  74 CALM      30.05S
CAMBRIDGE      CLEAR     25  18  74 CALM      30.04S
RUSH CITY      CLEAR     24  17  76 CALM      30.04S
MOOSE LAKE     PTCLDY    23  16  74 CALM      30.01S
HINCKLEY       FAIR      23  18  80 CALM      30.03S
CLOQUET        CLOUDY    21  12  68 NW3       30.00F
MCGREGOR       CLOUDY    23  18  80 CALM      30.02S
$$
MNZ071>073-080-081-089-090-097-098-110000-
   Southwest Minnesota

CITY           SKY/WX    TMP DP  RH WIND       PRES   REMARKS
MONTEVIDEO     CLOUDY    34  25  69 CALM      30.04F
GRANITE FALLS  CLOUDY    36  26  67 NW6       30.06S
CANBY          CLOUDY    36  28  72 CALM      30.05F
MARSHALL       CLOUDY    35  25  66 CALM      30.05S
REDWOOD FALLS  CLOUDY    34  23  64 NW8       30.05R WCI  27
OLIVIA         CLOUDY    34  27  75 NW7       30.04R WCI  28
PIPESTONE      PTCLDY    36  27  69 NW8       30.03F
WINDOM           N/A     36  21  55 NW5       30.04S
WORTHINGTON    CLOUDY    36  28  73 W7        30.05R
JACKSON        CLOUDY    34  27  75 MISG      30.06R
TRACY          CLOUDY    36  28  75 CALM      30.05R
$$
MNZ065>067-074>077-082>085-091>093-110000-
   South Central Minnesota

CITY           SKY/WX    TMP DP  RH WIND       PRES   REMARKS
MANKATO        CLOUDY    29  23  78 CALM      30.05R
NEW ULM        CLOUDY    32  25  74 NW5       30.05R WCI  27
ST JAMES       MOCLDY    32  25  74 W6        30.06S WCI  26
FAIRMONT       MOCLDY    33  25  72 NW6       30.06R WCI  28
GLENCOE        CLOUDY    30  24  79 CALM      30.04R
FARIBAULT      PTCLDY    27  21  80 CALM      30.05R
WASECA         CLOUDY    27  23  86 CALM      30.06S
ALBERT LEA     PTCLDY    27  21  80 N3        30.05R
$$
MNZ078>079-086>088-094>096-110000-
   Southeast Minnesota

CITY           SKY/WX    TMP DP  RH WIND       PRES   REMARKS
ROCHESTER      CLOUDY    27  21  78 NW9       30.03R WCI  18
RED WING       CLOUDY    28  18  64 CALM      30.05R
STANTON        PTCLDY    27  21  80 CALM      30.05R
DODGE CENTER   CLOUDY    27  21  80 W6        30.03R WCI  20
WINONA           N/A     30  23  74 N5        30.07R WCI  25
AUSTIN         CLOUDY    28  21  74 NW7       30.04R WCI  21
PRESTON        CLOUDY    27  21  77 NW8       30.04R WCI  19
$$
ABBREVIATIONS USED IN REMARKS
   TC - TEMPERATURES IN CELSIUS
  WCI - WIND CHILL INDEX
   HX - HEAT INDEX
  VSB - VISIBILITY
$$




USA.gov is the U.S. government's official web portal to all federal, state and local government web resources and services.